Time,TemperatureF,DewpointF,PressureIn,WindDirection,WindDirectionDegrees,WindSpeedMPH,WindSpeedGustMPH,Humidity,HourlyPrecipIn,Conditions,Clouds,dailyrainin,SolarRadiationWatts/m^2,SoftwareType,DateUTC
2013-04-18 00:03:00,64.0,56.0,-100.00,NNE,18,5.0,12.0,74,0.00,,,0.00,0.000000,,2013-04-18 10:03:00,
2013-04-18 00:12:00,64.0,56.0,-100.00,NNE,18,5.0,12.0,74,0.00,,,0.00,0.000000,,2013-04-18 10:12:00,
2013-04-18 00:22:00,64.0,56.0,-100.00,NNE,18,5.0,12.0,74,0.00,,,0.00,0.000000,,2013-04-18 10:22:00,
2013-04-18 00:32:00,64.0,56.0,-100.00,NNE,18,5.0,12.0,74,0.00,,,0.00,0.000000,,2013-04-18 10:32:00,
2013-04-18 01:02:00,64.0,58.0,-100.00,NE,35,4.0,17.0,80,0.00,,,0.00,0.000000,,2013-04-18 11:02:00,
2013-04-18 01:12:00,64.0,58.0,-100.00,NE,35,4.0,17.0,80,0.00,,,0.00,0.000000,,2013-04-18 11:12:00,
2013-04-18 01:22:00,64.0,58.0,-100.00,NE,35,4.0,17.0,80,0.00,,,0.00,0.000000,,2013-04-18 11:22:00,
2013-04-18 01:32:00,64.0,58.0,-100.00,NE,35,4.0,17.0,80,0.00,,,0.00,0.000000,,2013-04-18 11:32:00,
2013-04-18 02:02:00,64.0,58.0,-100.00,East,99,2.0,19.0,81,0.00,,,0.00,0.000000,,2013-04-18 12:02:00,
2013-04-18 02:12:00,64.0,58.0,-100.00,East,99,2.0,19.0,81,0.00,,,0.00,0.000000,,2013-04-18 12:12:00,
2013-04-18 02:22:00,64.0,58.0,-100.00,East,99,2.0,19.0,81,0.00,,,0.00,0.000000,,2013-04-18 12:22:00,
2013-04-18 02:32:00,64.0,58.0,-100.00,East,99,2.0,19.0,81,0.00,,,0.00,0.000000,,2013-04-18 12:32:00,
2013-04-18 03:02:00,62.0,57.0,-100.00,East,87,2.0,15.0,84,0.00,,,0.00,0.000000,,2013-04-18 13:02:00,
2013-04-18 03:12:00,62.0,57.0,-100.00,East,87,2.0,15.0,84,0.00,,,0.00,0.000000,,2013-04-18 13:12:00,
2013-04-18 03:22:00,62.0,57.0,-100.00,East,87,2.0,15.0,84,0.00,,,0.00,0.000000,,2013-04-18 13:22:00,
2013-04-18 03:32:00,62.0,57.0,-100.00,East,87,2.0,15.0,84,0.00,,,0.00,0.000000,,2013-04-18 13:32:00,
2013-04-18 04:02:00,63.0,58.0,-100.00,North,5,3.0,13.0,85,0.00,,,0.00,0.000000,,2013-04-18 14:02:00,
2013-04-18 04:12:00,63.0,58.0,-100.00,North,5,3.0,13.0,85,0.00,,,0.00,0.000000,,2013-04-18 14:12:00,
2013-04-18 04:22:00,63.0,58.0,-100.00,North,5,3.0,13.0,85,0.00,,,0.00,0.000000,,2013-04-18 14:22:00,
2013-04-18 04:32:00,63.0,58.0,-100.00,North,5,3.0,13.0,85,0.00,,,0.00,0.000000,,2013-04-18 14:32:00,
2013-04-18 05:02:00,63.0,57.0,-100.00,SE,139,3.0,12.0,82,0.00,,,0.00,0.000000,,2013-04-18 15:02:00,
2013-04-18 05:12:00,63.0,57.0,-100.00,SE,139,3.0,12.0,82,0.00,,,0.00,0.000000,,2013-04-18 15:12:00,
2013-04-18 05:22:00,63.0,57.0,-100.00,SE,139,3.0,12.0,82,0.00,,,0.00,0.000000,,2013-04-18 15:22:00,
2013-04-18 05:33:00,63.0,57.0,-100.00,SE,139,3.0,12.0,82,0.00,,,0.00,0.000000,,2013-04-18 15:33:00,
2013-04-18 06:03:00,61.0,56.0,-100.00,WSW,255,3.0,19.0,83,0.00,,,0.00,0.000000,,2013-04-18 16:03:00,
2013-04-18 06:13:00,61.0,56.0,-100.00,WSW,255,3.0,19.0,83,0.00,,,0.00,0.000000,,2013-04-18 16:13:00,
2013-04-18 06:22:00,61.0,56.0,-100.00,WSW,255,3.0,19.0,83,0.00,,,0.00,0.000000,,2013-04-18 16:22:00,
2013-04-18 06:33:00,61.0,56.0,-100.00,WSW,255,3.0,19.0,83,0.00,,,0.00,0.000000,,2013-04-18 16:33:00,
2013-04-18 07:02:00,62.0,57.0,-100.00,West,267,2.0,17.0,84,0.00,,,0.00,6.000000,,2013-04-18 17:02:00,
2013-04-18 07:12:00,62.0,57.0,-100.00,West,267,2.0,17.0,84,0.00,,,0.00,6.000000,,2013-04-18 17:12:00,
2013-04-18 07:22:00,62.0,57.0,-100.00,West,267,2.0,17.0,84,0.00,,,0.00,6.000000,,2013-04-18 17:22:00,
2013-04-18 07:32:00,62.0,57.0,-100.00,West,267,2.0,17.0,84,0.00,,,0.00,6.000000,,2013-04-18 17:32:00,
2013-04-18 08:02:00,68.0,58.0,-100.00,SE,127,5.0,23.0,71,0.00,,,0.00,207.000000,,2013-04-18 18:02:00,
2013-04-18 08:12:00,68.0,58.0,-100.00,SE,127,5.0,23.0,71,0.00,,,0.00,207.000000,,2013-04-18 18:12:00,
2013-04-18 08:22:00,68.0,58.0,-100.00,SE,127,5.0,23.0,71,0.00,,,0.00,207.000000,,2013-04-18 18:22:00,
2013-04-18 08:32:00,68.0,58.0,-100.00,SE,127,5.0,23.0,71,0.00,,,0.00,207.000000,,2013-04-18 18:32:00,
2013-04-18 09:02:00,70.0,59.0,-100.00,NNE,23,4.0,20.0,68,0.00,,,0.00,572.000000,,2013-04-18 19:02:00,
2013-04-18 09:12:00,70.0,59.0,-100.00,NNE,23,4.0,20.0,68,0.00,,,0.00,572.000000,,2013-04-18 19:12:00,
2013-04-18 09:22:00,70.0,59.0,-100.00,NNE,23,4.0,20.0,68,0.00,,,0.00,572.000000,,2013-04-18 19:22:00,
2013-04-18 09:32:00,70.0,59.0,-100.00,NNE,23,4.0,20.0,68,0.00,,,0.00,572.000000,,2013-04-18 19:32:00,
2013-04-18 10:02:00,73.0,56.0,-100.00,NNW,342,4.0,17.0,55,0.00,,,0.00,927.000000,,2013-04-18 20:02:00,
2013-04-18 10:12:00,73.0,56.0,-100.00,NNW,342,4.0,17.0,55,0.00,,,0.00,927.000000,,2013-04-18 20:12:00,
2013-04-18 10:22:00,73.0,56.0,-100.00,NNW,342,4.0,17.0,55,0.00,,,0.00,927.000000,,2013-04-18 20:22:00,
2013-04-18 10:32:00,73.0,56.0,-100.00,NNW,342,4.0,17.0,55,0.00,,,0.00,927.000000,,2013-04-18 20:32:00,
2013-04-18 11:02:00,75.0,60.0,-100.00,SSE,165,4.0,22.0,60,0.00,,,0.00,1146.000000,,2013-04-18 21:02:00,
2013-04-18 11:12:00,75.0,60.0,-100.00,SSE,165,4.0,22.0,60,0.00,,,0.00,1146.000000,,2013-04-18 21:12:00,
2013-04-18 11:22:00,75.0,60.0,-100.00,SSE,165,4.0,22.0,60,0.00,,,0.00,1146.000000,,2013-04-18 21:22:00,
2013-04-18 11:32:00,75.0,60.0,-100.00,SSE,165,4.0,22.0,60,0.00,,,0.00,1146.000000,,2013-04-18 21:32:00,
2013-04-18 12:02:00,73.0,61.0,-100.00,NNE,14,7.0,26.0,67,0.00,,,-99.99,1209.000000,,2013-04-18 22:02:00,
2013-04-18 12:12:00,73.0,61.0,-100.00,NNE,14,7.0,26.0,67,0.00,,,-99.99,1209.000000,,2013-04-18 22:12:00,
2013-04-18 12:22:00,73.0,61.0,-100.00,NNE,14,7.0,26.0,67,0.00,,,-99.99,1209.000000,,2013-04-18 22:22:00,
2013-04-18 12:32:00,73.0,61.0,-100.00,NNE,14,7.0,26.0,67,0.00,,,-99.99,1209.000000,,2013-04-18 22:32:00,
2013-04-18 13:03:00,74.0,61.0,-100.00,WNW,293,5.0,22.0,63,0.00,,,0.00,1168.000000,,2013-04-18 23:03:00,
2013-04-18 13:11:00,74.0,61.0,-100.00,WNW,293,5.0,22.0,63,0.00,,,0.00,1168.000000,,2013-04-18 23:11:00,
2013-04-18 13:21:00,74.0,61.0,-100.00,WNW,293,5.0,22.0,63,0.00,,,0.00,1168.000000,,2013-04-18 23:21:00,
2013-04-18 13:32:00,74.0,61.0,-100.00,WNW,293,5.0,22.0,63,0.00,,,0.00,1168.000000,,2013-04-18 23:32:00,
2013-04-18 14:01:00,75.0,60.0,-100.00,ESE,109,6.0,18.0,59,0.00,,,0.00,1470.000000,,2013-04-19 00:01:00,
2013-04-18 14:12:00,75.0,60.0,-100.00,ESE,109,6.0,18.0,59,0.00,,,0.00,1470.000000,,2013-04-19 00:12:00,
2013-04-18 14:21:00,75.0,60.0,-100.00,ESE,109,6.0,18.0,59,0.00,,,0.00,1470.000000,,2013-04-19 00:21:00,
2013-04-18 14:31:00,75.0,60.0,-100.00,ESE,109,6.0,18.0,59,0.00,,,0.00,1470.000000,,2013-04-19 00:31:00,
2013-04-18 15:01:00,73.0,60.0,-100.00,North,351,5.0,19.0,63,0.00,,,0.00,1328.000000,,2013-04-19 01:01:00,
2013-04-18 15:11:00,73.0,60.0,-100.00,North,351,5.0,19.0,63,0.00,,,0.00,1328.000000,,2013-04-19 01:11:00,
2013-04-18 15:21:00,73.0,60.0,-100.00,North,351,5.0,19.0,63,0.00,,,0.00,1328.000000,,2013-04-19 01:21:00,
2013-04-18 15:31:00,73.0,60.0,-100.00,North,351,5.0,19.0,63,0.00,,,0.00,1328.000000,,2013-04-19 01:31:00,
2013-04-18 16:01:00,71.0,60.0,-100.00,South,188,8.0,25.0,68,0.00,,,0.00,965.000000,,2013-04-19 02:01:00,
2013-04-18 16:11:00,71.0,60.0,-100.00,South,188,8.0,25.0,68,0.00,,,0.00,965.000000,,2013-04-19 02:11:00,
2013-04-18 16:21:00,71.0,60.0,-100.00,South,188,8.0,25.0,68,0.00,,,0.00,965.000000,,2013-04-19 02:21:00,
2013-04-18 16:31:00,71.0,60.0,-100.00,South,188,8.0,25.0,68,0.00,,,0.00,965.000000,,2013-04-19 02:31:00,
2013-04-18 17:01:00,71.0,60.0,-100.00,NE,37,9.0,24.0,68,0.00,,,0.00,838.000000,,2013-04-19 03:01:00,
2013-04-18 17:11:00,71.0,60.0,-100.00,NE,37,9.0,24.0,68,0.00,,,0.00,838.000000,,2013-04-19 03:11:00,
2013-04-18 17:21:00,71.0,60.0,-100.00,NE,37,9.0,24.0,68,0.00,,,0.00,838.000000,,2013-04-19 03:21:00,
2013-04-18 17:32:00,71.0,60.0,-100.00,NE,37,9.0,24.0,68,0.00,,,0.00,838.000000,,2013-04-19 03:32:00,
2013-04-18 18:03:00,67.0,58.0,-100.00,NE,47,9.0,25.0,74,0.00,,,0.00,322.000000,,2013-04-19 04:03:00,
2013-04-18 18:13:00,67.0,58.0,-100.00,NE,47,9.0,25.0,74,0.00,,,0.00,322.000000,,2013-04-19 04:13:00,
2013-04-18 18:23:00,67.0,58.0,-100.00,NE,47,9.0,25.0,74,0.00,,,0.00,322.000000,,2013-04-19 04:23:00,
2013-04-18 18:32:00,67.0,58.0,-100.00,NE,47,9.0,25.0,74,0.00,,,0.00,322.000000,,2013-04-19 04:32:00,
2013-04-18 19:03:00,65.0,59.0,-100.00,South,187,9.0,30.0,80,0.00,,,0.00,30.000000,,2013-04-19 05:03:00,
2013-04-18 19:11:00,65.0,59.0,-100.00,South,187,9.0,30.0,80,0.00,,,0.00,30.000000,,2013-04-19 05:11:00,
2013-04-18 19:22:00,65.0,59.0,-100.00,South,187,9.0,30.0,80,0.00,,,0.00,30.000000,,2013-04-19 05:22:00,
2013-04-18 19:31:00,65.0,59.0,-100.00,South,187,9.0,30.0,80,0.00,,,0.00,30.000000,,2013-04-19 05:31:00,
2013-04-18 20:01:00,64.0,58.0,-100.00,ENE,64,7.0,27.0,80,0.00,,,0.00,2.000000,,2013-04-19 06:01:00,
2013-04-18 20:11:00,64.0,58.0,-100.00,ENE,64,7.0,27.0,80,0.00,,,0.00,2.000000,,2013-04-19 06:11:00,
2013-04-18 20:22:00,64.0,58.0,-100.00,ENE,64,7.0,27.0,80,0.00,,,0.00,2.000000,,2013-04-19 06:22:00,
2013-04-18 20:31:00,64.0,58.0,-100.00,ENE,64,7.0,27.0,80,0.00,,,0.00,2.000000,,2013-04-19 06:31:00,
2013-04-18 21:02:00,63.0,55.0,-100.00,SE,126,9.0,29.0,75,0.00,,,0.00,0.000000,,2013-04-19 07:02:00,
2013-04-18 21:12:00,63.0,55.0,-100.00,SE,126,9.0,29.0,75,0.00,,,0.00,0.000000,,2013-04-19 07:12:00,
2013-04-18 21:21:00,63.0,55.0,-100.00,SE,126,9.0,29.0,75,0.00,,,0.00,0.000000,,2013-04-19 07:21:00,
2013-04-18 21:31:00,63.0,55.0,-100.00,SE,126,9.0,29.0,75,0.00,,,0.00,0.000000,,2013-04-19 07:31:00,
2013-04-18 22:02:00,65.0,58.0,-100.00,East,94,6.0,29.0,77,0.00,,,0.00,0.000000,,2013-04-19 08:02:00,
2013-04-18 22:12:00,65.0,58.0,-100.00,East,94,6.0,29.0,77,0.00,,,0.00,0.000000,,2013-04-19 08:12:00,
2013-04-18 22:21:00,65.0,58.0,-100.00,East,94,6.0,29.0,77,0.00,,,0.00,0.000000,,2013-04-19 08:21:00,
2013-04-18 22:32:00,65.0,58.0,-100.00,East,94,6.0,29.0,77,0.00,,,0.00,0.000000,,2013-04-19 08:32:00,
2013-04-18 23:01:00,64.0,57.0,-100.00,NNW,344,3.0,23.0,78,0.00,,,0.00,0.000000,,2013-04-19 09:01:00,
2013-04-18 23:11:00,64.0,57.0,-100.00,NNW,344,3.0,23.0,78,0.00,,,0.00,0.000000,,2013-04-19 09:11:00,
2013-04-18 23:21:00,64.0,57.0,-100.00,NNW,344,3.0,23.0,78,0.00,,,0.00,0.000000,,2013-04-19 09:21:00,
2013-04-18 23:32:00,64.0,57.0,-100.00,NNW,344,3.0,23.0,78,0.00,,,0.00,0.000000,,2013-04-19 09:32:00,